Deer Park, WA
on Thursday, December 6, 2012

Thursday
Previous Day Next Day
Daily Summary
 ActualAverageRecord
Temperature
Mean Temperature °F / °C 27°F / -3°C  
Max Temperature 35°F / 2°C 33°F / 1°C 47°F / 8°C (2011)
Min Temperature 28°F / -2°C 21°F / -6°C 3°F / -16°C (2005)
Degree Days
Heating Degree Days 33 38  
Month to date heating degree days 148 225  
Since 1 July heating degree days 1885 2228  
Cooling Degree Days 0 0  
Month to date cooling degree days 0 0  
Year to date cooling degree days 232 187  
Moisture
Dew Point 31°F / -1°C   
Average Humidity 88    
Maximum Humidity 100    
Minimum Humidity 75    
Precipitation
Precipitation 0.06 in / 1.52 cm 0.09 in / 2.29 cm 0.27 in / 0.69 cm (1999)
Month to date precipitation 1.18 0.52  
Year to date precipitation 25.29 19.91  
Wind
Wind Speed 5 mph / 8 km/h   
Max Wind Speed 10 mph / 16 km/h   
Max Gust Speed 13 mph / 21 km/h   
Visibility 5 miles / 9 kilometers   
Events Snow   

Key: T is trace of precipitation, MM is missing value
Source: NWS Daily Summary
Time(PST)TemperatureDew PointHumidity Pressure Visibility Wind DirectionWind SpeedGust SpeedPrecipitationEvents Conditions
12:53 AM 33.1°F / 0.6°C 27.0°F / -2.8°C 78% 30.15 in / 1021.0 hPa 10.0 miles / 16.1 kilometers South 5.8 mph / 9.3 km/h - N/A   Overcast
1:53 AM 33.1°F / 0.6°C 28.0°F / -2.2°C 82% 30.16 in / 1021.2 hPa 10.0 miles / 16.1 kilometers Calm Calm - N/A   Overcast
2:53 AM 32.0°F / 0.0°C 27.0°F / -2.8°C 82% 30.16 in / 1021.1 hPa 10.0 miles / 16.1 kilometers South 4.6 mph / 7.4 km/h - N/A   Overcast
3:53 AM 30.0°F / -1.1°C 27.0°F / -2.8°C 88% 30.15 in / 1020.8 hPa 10.0 miles / 16.1 kilometers SSE 4.6 mph / 7.4 km/h - N/A   Overcast
4:53 AM 28.0°F / -2.2°C 27.0°F / -2.8°C 96% 30.15 in / 1020.9 hPa 10.0 miles / 16.1 kilometers Calm Calm - N/A   Overcast
5:53 AM 30.9°F / -0.6°C 28.9°F / -1.7°C 92% 30.14 in / 1020.6 hPa 10.0 miles / 16.1 kilometers South 4.6 mph / 7.4 km/h - N/A   Overcast
6:15 AM 32.0°F / 0.0°C 28.4°F / -2.0°C 87% 30.08 in / 1018.5 hPa 10.0 miles / 16.1 kilometers SSE 4.6 mph / 7.4 km/h - N/A   Overcast
6:42 AM 32.0°F / 0.0°C 30.2°F / -1.0°C 93% 30.08 in / 1018.5 hPa 10.0 miles / 16.1 kilometers SSE 4.6 mph / 7.4 km/h - N/A   Overcast
6:53 AM 32.0°F / 0.0°C 28.9°F / -1.7°C 88% 30.13 in / 1020.2 hPa 10.0 miles / 16.1 kilometers SE 6.9 mph / 11.1 km/h - N/A   Overcast
7:53 AM 32.0°F / 0.0°C 28.9°F / -1.7°C 88% 30.12 in / 1020.0 hPa 10.0 miles / 16.1 kilometers SSE 4.6 mph / 7.4 km/h - N/A   Overcast
8:53 AM 33.1°F / 0.6°C 30.0°F / -1.1°C 89% 30.13 in / 1020.1 hPa 10.0 miles / 16.1 kilometers South 4.6 mph / 7.4 km/h - N/A   Overcast
9:53 AM 33.1°F / 0.6°C 30.0°F / -1.1°C 89% 30.13 in / 1020.1 hPa 10.0 miles / 16.1 kilometers South 6.9 mph / 11.1 km/h - N/A   Overcast
10:40 AM 33.8°F / 1.0°C 30.2°F / -1.0°C 87% 30.06 in / 1017.8 hPa 1.8 miles / 2.8 kilometers South 9.2 mph / 14.8 km/h - 0.00 in / 0.0 cm Snow Light Snow
10:51 AM 33.8°F / 1.0°C 30.2°F / -1.0°C 87% 30.06 in / 1017.8 hPa 2.0 miles / 3.2 kilometers South 6.9 mph / 11.1 km/h - 0.00 in / 0.0 cm Snow Light Snow
10:53 AM 33.1°F / 0.6°C 30.9°F / -0.6°C 92% 30.12 in / 1019.9 hPa 2.0 miles / 3.2 kilometers South 6.9 mph / 11.1 km/h - 0.00 in / 0.0 cm Snow Light Snow
11:05 AM 33.8°F / 1.0°C 30.2°F / -1.0°C 87% 30.05 in / 1017.5 hPa 1.5 miles / 2.4 kilometers South 6.9 mph / 11.1 km/h - 0.00 in / 0.0 cm Snow Light Snow
11:38 AM 33.8°F / 1.0°C 32.0°F / 0.0°C 93% 30.04 in / 1017.2 hPa 2.5 miles / 4.0 kilometers SSE 5.8 mph / 9.3 km/h - 0.00 in / 0.0 cm Snow Light Snow
11:50 AM 33.8°F / 1.0°C 32.0°F / 0.0°C 93% 30.03 in / 1016.8 hPa 2.5 miles / 4.0 kilometers South 4.6 mph / 7.4 km/h - 0.00 in / 0.0 cm Snow Light Snow
11:53 AM 33.1°F / 0.6°C 32.0°F / 0.0°C 96% 30.09 in / 1018.9 hPa 2.5 miles / 4.0 kilometers South 5.8 mph / 9.3 km/h - 0.00 in / 0.0 cm Snow Light Snow
12:03 PM 33.8°F / 1.0°C 32.0°F / 0.0°C 93% 30.03 in / 1016.8 hPa 1.2 miles / 2.0 kilometers South 6.9 mph / 11.1 km/h - 0.00 in / 0.0 cm Snow Light Snow
12:20 PM 33.8°F / 1.0°C 32.0°F / 0.0°C 93% 30.03 in / 1016.8 hPa 0.8 miles / 1.2 kilometers South 6.9 mph / 11.1 km/h - 0.01 in / 0.3 cm Snow Light Snow
12:27 PM 33.8°F / 1.0°C 32.0°F / 0.0°C 93% 30.03 in / 1016.8 hPa 1.0 miles / 1.6 kilometers South 6.9 mph / 11.1 km/h - 0.01 in / 0.3 cm Snow Light Snow
12:36 PM 33.8°F / 1.0°C 32.0°F / 0.0°C 93% 30.02 in / 1016.5 hPa 1.5 miles / 2.4 kilometers South 5.8 mph / 9.3 km/h - 0.01 in / 0.3 cm Snow Light Snow
12:43 PM 33.8°F / 1.0°C 32.0°F / 0.0°C 93% 30.02 in / 1016.5 hPa 2.0 miles / 3.2 kilometers South 4.6 mph / 7.4 km/h - 0.01 in / 0.3 cm Snow Light Snow
12:53 PM 33.1°F / 0.6°C 32.0°F / 0.0°C 96% 30.08 in / 1018.4 hPa 2.5 miles / 4.0 kilometers South 5.8 mph / 9.3 km/h - 0.01 in / 0.3 cm Snow Light Snow
12:59 PM 33.8°F / 1.0°C 32.0°F / 0.0°C 93% 30.01 in / 1016.1 hPa 1.8 miles / 2.8 kilometers South 5.8 mph / 9.3 km/h - 0.00 in / 0.0 cm Snow Light Snow
1:23 PM 33.8°F / 1.0°C 33.8°F / 1.0°C 100% 30.00 in / 1015.8 hPa 3.0 miles / 4.8 kilometers South 4.6 mph / 7.4 km/h - 0.00 in / 0.0 cm Snow Light Snow
1:31 PM 33.8°F / 1.0°C 33.8°F / 1.0°C 100% 30.00 in / 1015.8 hPa 4.0 miles / 6.4 kilometers South 5.8 mph / 9.3 km/h - 0.00 in / 0.0 cm Snow Light Snow
1:40 PM 33.8°F / 1.0°C 33.8°F / 1.0°C 100% 29.99 in / 1015.5 hPa 2.5 miles / 4.0 kilometers South 5.8 mph / 9.3 km/h - 0.00 in / 0.0 cm Snow Light Snow
1:48 PM 33.8°F / 1.0°C 33.8°F / 1.0°C 100% 29.99 in / 1015.5 hPa 2.5 miles / 4.0 kilometers South 5.8 mph / 9.3 km/h - 0.00 in / 0.0 cm Snow Light Snow
1:53 PM 33.1°F / 0.6°C 33.1°F / 0.6°C 100% 30.05 in / 1017.4 hPa 2.0 miles / 3.2 kilometers SSE 5.8 mph / 9.3 km/h - 0.00 in / 0.0 cm Snow Light Snow
2:12 PM 33.8°F / 1.0°C 33.8°F / 1.0°C 100% 29.98 in / 1015.1 hPa 3.0 miles / 4.8 kilometers SSE 5.8 mph / 9.3 km/h - 0.00 in / 0.0 cm Snow Light Snow
2:19 PM 33.8°F / 1.0°C 33.8°F / 1.0°C 100% 29.98 in / 1015.1 hPa 2.5 miles / 4.0 kilometers SE 5.8 mph / 9.3 km/h - 0.00 in / 0.0 cm Snow Light Snow
2:42 PM 33.8°F / 1.0°C 33.8°F / 1.0°C 100% 29.97 in / 1014.8 hPa 3.0 miles / 4.8 kilometers SE 5.8 mph / 9.3 km/h - 0.01 in / 0.3 cm Snow Light Snow
2:53 PM 33.1°F / 0.6°C 33.1°F / 0.6°C 100% 30.03 in / 1016.9 hPa 4.0 miles / 6.4 kilometers SSE 5.8 mph / 9.3 km/h - 0.01 in / 0.3 cm Snow Light Snow
3:14 PM 33.8°F / 1.0°C 33.8°F / 1.0°C 100% 29.97 in / 1014.8 hPa 4.0 miles / 6.4 kilometers SSE 6.9 mph / 11.1 km/h - 0.00 in / 0.0 cm   Overcast
3:25 PM 33.8°F / 1.0°C 33.8°F / 1.0°C 100% 29.97 in / 1014.8 hPa 1.8 miles / 2.8 kilometers South 6.9 mph / 11.1 km/h - 0.00 in / 0.0 cm Snow Light Snow
3:53 PM 33.1°F / 0.6°C 33.1°F / 0.6°C 100% 30.02 in / 1016.6 hPa 3.0 miles / 4.8 kilometers SSE 5.8 mph / 9.3 km/h - 0.00 in / 0.0 cm Snow Light Snow
4:07 PM 33.8°F / 1.0°C 33.8°F / 1.0°C 100% 29.96 in / 1014.4 hPa 2.0 miles / 3.2 kilometers SSE 4.6 mph / 7.4 km/h - 0.01 in / 0.3 cm Snow Light Snow
4:28 PM 33.8°F / 1.0°C 32.0°F / 0.0°C 93% 29.96 in / 1014.4 hPa 1.5 miles / 2.4 kilometers SSE 5.8 mph / 9.3 km/h - 0.02 in / 0.5 cm Snow Light Snow
4:46 PM 32.0°F / 0.0°C 32.0°F / 0.0°C 100% 29.95 in / 1014.1 hPa 1.2 miles / 2.0 kilometers South 5.8 mph / 9.3 km/h - 0.03 in / 0.8 cm Snow Light Snow
4:53 PM 32.0°F / 0.0°C 32.0°F / 0.0°C 100% 30.02 in / 1016.4 hPa 1.2 miles / 2.0 kilometers South 5.8 mph / 9.3 km/h - 0.03 in / 0.8 cm Snow Light Snow
5:25 PM 32.0°F / 0.0°C 32.0°F / 0.0°C 100% 29.94 in / 1013.8 hPa 2.5 miles / 4.0 kilometers SSE 4.6 mph / 7.4 km/h - 0.01 in / 0.3 cm Snow Light Snow
5:36 PM 32.0°F / 0.0°C 32.0°F / 0.0°C 100% 29.94 in / 1013.8 hPa 3.0 miles / 4.8 kilometers SE 3.5 mph / 5.6 km/h - 0.01 in / 0.3 cm Snow Light Snow
5:53 PM 32.0°F / 0.0°C 32.0°F / 0.0°C 100% 30.00 in / 1015.8 hPa 7.0 miles / 11.3 kilometers SE 3.5 mph / 5.6 km/h - 0.01 in / 0.3 cm   Overcast
6:02 PM 33.8°F / 1.0°C 32.0°F / 0.0°C 93% 29.94 in / 1013.8 hPa 8.0 miles / 12.9 kilometers SE 4.6 mph / 7.4 km/h - N/A   Overcast
6:53 PM 34.0°F / 1.1°C 33.1°F / 0.6°C 96% 30.00 in / 1015.7 hPa 10.0 miles / 16.1 kilometers SSW 8.1 mph / 13.0 km/h - N/A   Overcast
7:45 PM 35.6°F / 2.0°C 33.8°F / 1.0°C 93% 29.95 in / 1014.1 hPa 10.0 miles / 16.1 kilometers SW 5.8 mph / 9.3 km/h - N/A   Overcast
7:53 PM 34.0°F / 1.1°C 33.1°F / 0.6°C 96% 30.01 in / 1016.0 hPa 10.0 miles / 16.1 kilometers SW 5.8 mph / 9.3 km/h - N/A   Overcast
8:53 PM 35.1°F / 1.7°C 33.1°F / 0.6°C 92% 30.00 in / 1015.7 hPa 10.0 miles / 16.1 kilometers SSW 8.1 mph / 13.0 km/h - N/A   Overcast
9:21 PM 33.8°F / 1.0°C 32.0°F / 0.0°C 93% 29.94 in / 1013.8 hPa 10.0 miles / 16.1 kilometers South 9.2 mph / 14.8 km/h - N/A   Mostly Cloudy
9:53 PM 34.0°F / 1.1°C 32.0°F / 0.0°C 92% 30.00 in / 1015.7 hPa 10.0 miles / 16.1 kilometers South 6.9 mph / 11.1 km/h - N/A   Clear
10:53 PM 32.0°F / 0.0°C 30.9°F / -0.6°C 96% 30.01 in / 1016.3 hPa 10.0 miles / 16.1 kilometers South 3.5 mph / 5.6 km/h - N/A   Partly Cloudy
11:53 PM 28.9°F / -1.7°C 28.0°F / -2.2°C 96% 30.03 in / 1016.9 hPa 10.0 miles / 16.1 kilometers SE 3.5 mph / 5.6 km/h - N/A   Mostly Cloudy
Moon Phase
Dec. 06 Dec. 13 Dec. 20 Dec. 28 Jan. 04
Sunrise:07:24 AM (PST) Moon Rise:No Moon Rise/
Sunset:03:57 PM (PST) Moon Set:11:53 AM (PST)12/6

Copyright © 2014 The Weather Underground, Inc.